Location: Unspecified
(0.0000°N, 0.0000°E)
Time: 00:29:38
(UTC+00:00)

KAITUO 1B - Pass Details

Date: 27 March 2019
Orbit: 496 x 518 km, 97.5° (Epoch: 18 April)

Event Time Altitude Azimuth Distance (km) Brightness Sun altitude
Rises 05:11:10 0° 41° (NE) 2,579 ? -13.6°
Reaches altitude 10° 05:13:53 10° 63° (ENE) 1,703 ? -12.9°
Maximum altitude 05:16:09 16° 102° (ESE) 1,390 ? -12.3°
Drops below altitude 10° 05:18:25 10° 140° (SE) 1,716 ? -11.8°
Sets 05:21:10 0° 162° (SSE) 2,609 ? -11.1°
